College Park, MD

2:40 PM EDT on August 25, 2019 (GMT -0400)
College Park

Weather History for KCGS - July, 2019

Change the Weather History Date:

Thursday, July 18, 2019

  Actual Average Record
Temperature  
Mean Temperature 84 °F -  
Max Temperature 90 °F 90 °F 100 °F (1988)
Min Temperature 77 °F 68 °F 57 °F (1976)
Cooling Degree Days 18    
Growing Degree Days 34 (Base 50)    
Moisture  
Dew Point 71 °F    
Average Humidity 62    
Maximum Humidity 100    
Minimum Humidity 47    
Precipitation  
Precipitation 0.00 in - - ()
Sea Level Pressure  
Sea Level Pressure 29.87 in    
Wind  
Wind Speed 1 mph (West)    
Max Wind Speed 10 mph    
Max Gust Speed -    
Visibility 10 miles    
Events      
Averages and records for this station are not official NWS values.
T = Trace of Precipitation, MM = Missing Value Source: NWS Daily Summary

Daily Weather History Graph

Daily Weather History Graph

Search for Another Location

Airport or City:

Astronomy

Jul. 18, 2019 Rise Set
Actual Time 5:56 AM EDT 8:30 PM EDT
Civil Twilight 5:25 AM EDT 9:01 PM EDT
Nautical Twilight 4:47 AM EDT 9:40 PM EDT
Astronomical Twilight 4:03 AM EDT 10:23 PM EDT
Moon 9:55 PM EDT (7/18) 7:23 AM EDT (7/18)
Length of Visible Light 15h 36m
Length of Day
14h 34m
Full, 97% of the Moon is Illuminated
Jul 18
Full
Jul 24
Last Quarter
Jul 31
New
Aug 7
First Quarter
Aug 15
Full

Hourly Weather History & Observations

Time (EDT) Temp. Heat Index Dew Point Humidity Pressure Visibility Wind Dir Wind Speed Gust Speed Precip Events Conditions
12:03 AM - - - N/A% 29.88 in 7.0 mi Calm Calm - N/A   Scattered Clouds
12:23 AM - - - N/A% 29.89 in 7.0 mi Calm Calm - N/A   Clear
12:43 AM - - - N/A% 29.90 in 7.0 mi Calm Calm - N/A   Clear
1:03 AM - - - N/A% 29.90 in 10.0 mi Calm Calm - N/A   Clear
1:23 AM - - - N/A% 29.90 in 10.0 mi Calm Calm - N/A   Scattered Clouds
1:43 AM - - - N/A% 29.89 in 10.0 mi Calm Calm - N/A   Mostly Cloudy
2:03 AM - - - N/A% 29.89 in 7.0 mi Calm Calm - N/A   Mostly Cloudy
2:23 AM - - - N/A% 29.88 in 10.0 mi Calm Calm - N/A   Mostly Cloudy
2:43 AM - - - N/A% 29.88 in 10.0 mi Calm Calm - N/A   Mostly Cloudy
3:03 AM - - - N/A% 29.87 in 10.0 mi Calm Calm - N/A   Scattered Clouds
3:23 AM - - - N/A% 29.87 in 10.0 mi Calm Calm - N/A   Scattered Clouds
3:43 AM - - - N/A% 29.86 in 10.0 mi Calm Calm - N/A   Scattered Clouds
4:03 AM - - - N/A% 29.86 in 10.0 mi Calm Calm - N/A   Mostly Cloudy
4:23 AM - - - N/A% 29.86 in 10.0 mi Calm Calm - N/A   Scattered Clouds
4:43 AM - - - N/A% 29.86 in 10.0 mi Calm Calm - N/A   Clear
5:03 AM - - - N/A% 29.86 in 7.0 mi Calm Calm - N/A   Clear
5:23 AM - - - N/A% 29.86 in 7.0 mi Calm Calm - N/A   Clear
5:43 AM - - - N/A% 29.87 in 7.0 mi Calm Calm - N/A   Clear
6:03 AM - - - N/A% 29.88 in 7.0 mi Calm Calm - N/A   Clear
6:23 AM - - - N/A% 29.88 in 10.0 mi Calm Calm - N/A   Scattered Clouds
6:43 AM - - - N/A% 29.88 in 10.0 mi Calm Calm - N/A   Overcast
7:03 AM - - - N/A% 29.87 in 7.0 mi Calm Calm - N/A   Mostly Cloudy
7:23 AM - - - N/A% 29.88 in 10.0 mi Calm Calm - N/A   Clear
7:43 AM - - - N/A% 29.88 in 10.0 mi Calm Calm - N/A   Clear
8:03 AM - - - N/A% 29.88 in 10.0 mi Calm Calm - N/A   Clear
8:23 AM 83.1 °F 99.0 °F 83.1 °F 100% 29.88 in 10.0 mi Calm Calm - N/A   Clear
8:43 AM 83.8 °F 92.1 °F 75.6 °F 76% 29.89 in 10.0 mi Calm Calm - N/A   Mostly Cloudy
9:03 AM 82.9 °F 88.8 °F 73.2 °F 72% 29.89 in 10.0 mi Calm Calm - N/A   Overcast
9:23 AM 83.5 °F 90.0 °F 73.6 °F 72% 29.89 in 10.0 mi Calm Calm - N/A   Mostly Cloudy
9:43 AM 86.0 °F 93.8 °F 73.8 °F 67% 29.89 in 10.0 mi Calm Calm - N/A   Scattered Clouds
10:03 AM 85.3 °F 91.5 °F 72.1 °F 65% 29.89 in 10.0 mi Calm Calm - N/A   Mostly Cloudy
10:23 AM 85.1 °F 90.4 °F 71.2 °F 63% 29.90 in 10.0 mi West 6.9 mph - N/A   Overcast
10:43 AM 86.7 °F 92.5 °F 71.4 °F 60% 29.89 in 10.0 mi WNW 9.2 mph - N/A   Mostly Cloudy
11:23 AM 89.6 °F 96.6 °F 71.8 °F 56% 29.89 in 10.0 mi WSW 5.8 mph - N/A   Scattered Clouds
11:43 AM - - - N/A% 29.89 in 10.0 mi West 4.6 mph - N/A   Mostly Cloudy
11:54 AM - - - N/A% 29.88 in 10.0 mi WSW 5.8 mph - N/A   Mostly Cloudy
12:43 PM 88.0 °F 91.4 °F 67.6 °F 51% 29.88 in 10.0 mi SSW 4.6 mph - N/A   Mostly Cloudy
1:23 PM 87.1 °F 90.9 °F 68.5 °F 54% 29.88 in 10.0 mi WNW 8.1 mph - N/A   Overcast
1:43 PM 87.6 °F 91.5 °F 68.7 °F 53% 29.88 in 10.0 mi West 4.6 mph - N/A   Mostly Cloudy
2:03 PM 88.3 °F 92.8 °F 69.3 °F 53% 29.87 in 10.0 mi WSW 6.9 mph - N/A   Scattered Clouds
2:23 PM 89.1 °F 92.9 °F 68.2 °F 50% 29.86 in 10.0 mi WSW 9.2 mph - N/A   Mostly Cloudy
2:43 PM 88.7 °F 93.0 °F 69.1 °F 52% 29.87 in 10.0 mi West 5.8 mph - N/A   Mostly Cloudy
3:03 PM 88.2 °F 92.9 °F 69.8 °F 54% 29.87 in 10.0 mi West 8.1 mph - N/A   Scattered Clouds
3:23 PM 88.2 °F 92.5 °F 69.3 °F 53% 29.86 in 10.0 mi WNW 6.9 mph - N/A   Mostly Cloudy
3:43 PM 89.6 °F 93.4 °F 68.0 °F 49% 29.86 in 10.0 mi West 8.1 mph - N/A   Scattered Clouds
4:03 PM 90.0 °F 93.6 °F 68.0 °F 48% 29.85 in 10.0 mi WNW 9.2 mph - N/A   Scattered Clouds
4:23 PM 89.6 °F 92.6 °F 67.1 °F 47% 29.85 in 10.0 mi West 10.4 mph - N/A   Clear
4:43 PM 89.4 °F 93.1 °F 67.8 °F 49% 29.86 in 10.0 mi West 8.1 mph - N/A   Scattered Clouds
5:03 PM 89.1 °F 93.3 °F 68.9 °F 51% 29.85 in 10.0 mi West 3.5 mph - N/A   Mostly Cloudy
5:23 PM 88.9 °F 93.4 °F 69.3 °F 52% 29.85 in 10.0 mi NW 4.6 mph - N/A   Overcast
5:43 PM 87.8 °F 92.2 °F 69.4 °F 54% 29.85 in 10.0 mi North 5.8 mph - N/A   Overcast
6:03 PM 88.7 °F 93.0 °F 69.3 °F 52% 29.85 in 10.0 mi Calm Calm - N/A   Mostly Cloudy
6:23 PM 87.8 °F 92.2 °F 69.3 °F 54% 29.84 in 10.0 mi NNW 3.5 mph - N/A   Scattered Clouds
6:43 PM 87.6 °F 91.5 °F 68.7 °F 53% 29.85 in 10.0 mi North 5.8 mph - N/A   Scattered Clouds
7:03 PM 88.9 °F 93.0 °F 68.4 °F 51% 29.86 in 10.0 mi NW 3.5 mph - N/A   Clear
7:23 PM 88.7 °F 92.2 °F 67.6 °F 50% 29.86 in 10.0 mi NW 3.5 mph - N/A   Clear
7:43 PM 87.6 °F 91.5 °F 68.7 °F 53% 29.86 in 10.0 mi Calm Calm - N/A   Clear
8:03 PM 86.2 °F 90.4 °F 69.4 °F 57% 29.86 in 10.0 mi Calm Calm - N/A   Clear
8:23 PM 84.6 °F 89.1 °F 70.2 °F 62% 29.86 in 10.0 mi Calm Calm - N/A   Clear
8:43 PM 82.6 °F 86.4 °F 69.8 °F 65% 29.86 in 10.0 mi Calm Calm - N/A   Clear
9:03 PM 80.8 °F 84.2 °F 70.2 °F 70% 29.86 in 10.0 mi Calm Calm - N/A   Clear
9:23 PM 79.9 °F - 74.5 °F 83% 29.87 in 10.0 mi Calm Calm - N/A   Clear
9:43 PM 79.2 °F - 77.0 °F 93% 29.88 in 10.0 mi Calm Calm - N/A   Clear
10:03 PM 78.4 °F - 76.3 °F 93% 29.88 in 7.0 mi Calm Calm - N/A   Clear
10:23 PM 77.7 °F - 75.6 °F 93% 29.89 in 10.0 mi Calm Calm - N/A   Clear
10:43 PM 77.0 °F - 74.7 °F 92% 29.89 in 10.0 mi Calm Calm - N/A   Clear
11:03 PM - - - N/A% 29.88 in 10.0 mi Calm Calm - N/A   Clear
11:23 PM - - - N/A% 29.89 in 10.0 mi Calm Calm - N/A   Clear
11:43 PM - - - N/A% 29.89 in 10.0 mi Calm Calm - N/A   Clear